Location: Akdamlar
(36.8729°N, 30.5187°E)
Time: 15:18:36
(UTC+00:00)

Cosmos 1048 Rocket - Pass Details

Date: 18 September 2020
Orbit: 743 x 792 km, 74.0° (Epoch: 19 October)

Event Time Altitude Azimuth Distance (km) Brightness Sun altitude
Rises 17:46:28 0° 348° (NNW) 3,260 7.7 -21.6°
Reaches altitude 10° 17:48:57 10° 355° (N) 2,337 6.8 -22.1°
Enters shadow 17:53:54 45° 63° (ENE) 1,059 4.4 -23.0°
